Retour au catalogue

SL-8 R/B

ActifLEO
NORAD 14760·ROCKET BODY·🇷🇺 Russia

Lancé Feb 21, 1984 depuis Plesetsk Cosmodrome

Loading…

Prochains Passages (prochaines 24 heures)

TLE

FraisSource: Space-Track

Époque: Sep 14, 2026, 16:42 UTC

1 14760U 84019B   26257.69619420  .00000069  00000-0  31766-4 0  9991
2 14760  74.0429  43.7871 0027046 155.8201 204.4229 14.37240726228121

Suivez SL-8 R/B en temps réel avec AllMySat

Download on the App Store